Terminal Aerodrome Forecast
Issued by NWS El Paso, TX

Home | Current Version | Previous Version | Text Only | Print | Product List | Glossary On
Versions: 1 2 3 4 5 6 7 8 9 10 11 12 13 14 15 16 17 18 19
000
FTUS44 KEPZ 210500
TAFELP
TAF
KELP 210520Z 2106/2206 30005KT P6SM FEW070 FEW120
     FM211100 08008KT P6SM FEW080 SCT250
     FM212100 23006KT P6SM SCT080
     FM220100 08005KT P6SM SKC=

USA.gov is the U.S. government's official web portal to all federal, state and local government web resources and services.